Theta_e
301 299 296 296 298 300 300 300 299 296 297 296 297 296 295 295 296 298 296 296 295 295 296 298 298 298 299 301 303 304 304 302 301 301 301 303 303 304 304 304 305 305 306 310 308 308 308 308 308 309 310 311 312 311 311 311 312 312 312 312 311 311 311 311 309 308 308 309 309 309 308 307 308 307 307 307 307 307 308 308 309 310 312 310 310 309
301 298 298 300 299 298 299 297 296 296 296 296 295 295 294 295 293 297 296 295 297 295 297 298 297 298 299 301 302 303 302 301 302 302 303 304 305 305 305 306 306 307 308 306 305 305 306 306 307 308 309 309 309 310 310 310 311 311 312 311 311 308 309 310 309 309 309 310 311 311 310 306 305 305 305 305 304 303 303 306 307 307 307 308 307 308
297 296 299 299 297 297 296 296 296 297 295 296 295 296 294 295 297 298 296 295 295 294 294 297 296 297 299 301 303 302 302 303 305 304 304 305 306 306 306 306 306 306 306 306 304 305 305 306 306 307 308 309 310 310 310 311 311 311 311 311 311 307 308 309 310 310 310 310 309 311 308 306 302 300 301 301 300 301 302 301 302 304 306 306 305 306
294 297 300 298 298 296 294 295 295 295 296 296 295 293 293 296 293 293 296 295 295 295 296 295 294 296 299 301 302 304 303 304 306 305 305 305 304 305 306 307 307 306 306 305 304 304 304 305 305 306 307 309 310 310 310 310 310 310 310 311 309 307 308 308 309 310 308 305 303 303 302 300 300 298 297 298 298 299 299 299 299 300 301 301 301 302
296 298 294 296 298 298 294 294 295 295 294 297 297 296 295 295 295 294 295 295 295 294 293 295 295 297 300 300 302 304 304 302 303 304 304 305 305 306 307 308 307 305 306 306 305 304 303 303 304 305 307 308 309 310 309 309 309 310 310 311 309 307 308 308 307 304 303 301 299 297 297 297 297 298 297 297 296 297 296 296 297 297 298 299 299 300
297 297 297 295 296 297 296 293 296 298 294 296 297 296 297 297 296 295 294 294 295 295 295 294 290 293 298 298 300 304 302 302 304 302 303 304 305 305 304 305 306 306 306 305 305 305 304 303 304 305 306 307 309 309 310 310 310 310 310 311 309 308 307 306 304 301 301 301 299 297 298 298 297 296 297 297 296 295 296 297 295 295 296 297 298 298
297 294 298 297 296 296 296 296 298 298 295 293 295 297 297 297 296 295 294 294 291 290 294 294 290 287 297 296 300 302 301 302 305 305 305 306 306 306 305 306 305 305 305 305 305 305 304 304 304 304 305 307 308 309 310 310 310 310 311 310 309 307 306 304 301 300 300 301 302 302 303 303 301 299 299 303 300 297 296 296 295 295 295 296 296 297
295 294 295 297 296 296 295 293 297 296 296 293 295 294 295 295 294 295 294 294 294 295 296 293 296 290 290 297 301 301 300 301 302 304 306 307 308 307 307 306 306 306 305 305 304 304 304 304 304 303 305 307 308 309 309 309 309 309 310 309 309 308 305 302 301 300 302 301 301 305 306 306 305 303 302 301 299 295 294 294 294 294 294 295 296 296
296 294 295 295 296 295 295 297 298 298 296 296 292 295 296 296 297 295 295 294 293 291 290 293 296 290 291 296 297 298 297 299 300 303 305 307 309 307 307 307 307 306 305 304 304 303 303 303 303 304 305 307 309 309 308 308 308 309 309 308 308 307 304 301 301 301 302 303 304 308 307 305 307 307 302 298 295 294 294 293 293 292 292 293 294 294
294 297 298 300 297 294 296 291 296 298 296 293 293 295 295 295 295 296 295 294 293 291 288 292 295 288 290 296 296 296 297 298 301 303 305 307 308 307 307 307 306 304 303 303 303 304 303 303 304 305 306 307 308 309 308 308 308 308 308 307 306 305 303 300 300 301 302 303 305 307 306 305 300 299 297 296 294 293 293 292 291 291 290 290 291 292
294 295 295 297 297 298 293 292 291 296 295 296 298 298 297 296 295 295 295 294 292 287 290 294 295 292 286 294 296 295 297 300 302 303 305 307 307 307 307 307 307 304 302 302 301 301 303 303 303 304 304 306 308 308 307 307 307 308 307 306 305 305 303 300 299 300 301 301 303 304 304 303 298 298 297 294 292 292 292 291 290 290 290 290 290 291
296 295 296 297 294 294 297 294 295 293 295 299 298 296 296 294 294 293 292 293 287 285 291 291 294 295 285 292 297 301 300 300 303 303 304 306 306 308 307 304 303 301 301 300 300 300 300 300 301 302 303 305 306 306 306 306 307 307 307 306 305 304 302 300 299 299 299 299 301 302 303 300 297 296 295 295 293 293 293 293 292 291 290 290 290 290
293 295 296 296 296 297 298 296 294 296 295 297 297 296 289 287 287 284 288 285 286 285 288 288 290 288 288 294 299 299 300 301 301 302 304 306 306 308 307 305 303 302 300 300 301 301 300 300 300 300 302 304 305 305 305 305 306 306 306 306 305 303 302 300 299 299 299 299 299 302 302 300 297 296 297 297 296 295 296 295 293 291 290 290 289 290
293 295 295 297 296 297 300 294 292 290 293 294 294 292 288 284 283 281 284 283 283 287 287 288 292 287 293 296 300 299 302 303 304 304 304 305 305 307 307 307 303 302 301 302 301 301 301 301 301 301 302 304 305 305 305 305 305 306 306 305 304 305 301 298 298 299 298 299 299 300 299 300 298 298 299 300 295 294 295 295 294 293 292 291 291 291
285 285 291 294 293 300 298 298 297 296 294 294 300 296 291 289 285 281 283 281 284 287 286 289 286 286 288 295 300 302 303 304 305 305 305 304 305 305 304 303 302 302 302 302 301 301 301 301 301 301 302 304 305 305 305 305 305 305 305 305 304 304 299 298 297 297 298 298 299 298 298 298 297 297 299 300 299 296 294 295 295 295 294 293 293 292
289 290 295 298 296 299 296 300 301 298 295 296 297 297 291 290 292 285 287 286 284 286 286 283 286 293 294 299 300 299 299 299 299 300 301 301 303 303 303 303 303 301 301 302 301 301 300 301 301 301 302 304 305 305 305 305 305 304 305 305 304 304 300 298 297 297 298 298 298 297 296 296 296 297 297 299 297 295 296 295 295 295 295 295 293 293
288 287 292 295 295 297 297 297 298 299 287 293 294 289 293 296 295 288 283 283 281 284 283 290 289 293 298 298 299 300 299 299 300 299 299 300 302 303 303 304 304 305 303 301 300 300 300 300 300 301 302 303 304 305 304 304 305 305 304 304 304 304 302 299 297 297 298 297 296 295 295 295 295 296 296 296 295 295 294 293 294 295 295 294 293 292
288 289 290 293 292 294 293 294 299 297 298 293 289 293 295 298 298 291 285 286 285 282 284 287 286 289 290 287 297 298 298 300 300 301 301 301 302 301 302 304 306 307 304 301 300 300 300 300 299 300 302 303 304 305 305 304 305 305 305 304 304 303 301 300 298 298 297 296 295 294 293 293 294 293 295 294 293 293 292 292 293 293 293 293 292 291
295 287 291 288 291 294 294 297 297 297 297 296 294 303 293 287 286 291 288 281 281 280 283 287 287 287 290 292 295 295 295 298 300 301 301 301 302 302 303 304 304 306 303 300 299 298 298 298 299 299 300 303 304 305 305 305 305 304 304 305 305 303 303 300 299 298 297 296 296 295 293 292 292 293 294 292 291 291 291 291 292 292 292 291 290 289
296 288 288 290 292 294 295 296 289 292 296 296 296 295 297 294 290 287 288 288 288 283 282 284 286 286 296 296 297 298 299 301 302 302 301 301 302 303 304 304 305 304 301 300 299 298 298 298 298 299 300 301 303 304 305 305 305 304 304 304 304 304 302 300 298 296 295 295 295 294 293 292 292 292 291 290 289 289 290 291 291 291 290 290 289 289
293 292 286 290 292 293 289 293 292 294 290 291 293 292 292 291 294 294 290 288 287 284 284 283 283 289 297 301 299 300 300 301 302 303 305 304 305 305 304 305 305 305 303 301 299 298 298 297 298 298 299 301 303 304 304 304 304 304 304 302 303 302 299 298 297 296 295 294 294 293 292 291 291 290 289 288 289 289 289 290 291 291 290 289 288 288
290 289 286 289 288 288 293 297 297 298 298 295 293 291 293 289 287 285 284 289 286 287 284 283 283 290 299 298 301 301 302 303 304 304 305 306 305 303 303 303 302 304 301 299 298 297 297 297 297 298 299 300 301 302 302 303 303 303 303 301 300 301 299 298 298 296 296 294 294 293 291 291 291 290 289 287 287 288 289 289 289 290 289 288 288 288
297 295 290 286 289 291 294 292 290 290 293 294 295 294 297 295 294 289 284 286 285 287 285 287 284 288 300 300 302 303 303 302 303 304 305 306 306 303 304 304 303 300 300 299 297 297 296 297 297 297 297 298 299 300 301 302 302 302 302 301 300 298 298 298 298 297 297 295 294 293 292 290 289 288 288 287 286 287 288 288 288 289 288 288 287 287
295 290 288 290 293 293 293 292 292 291 295 293 294 293 295 292 294 292 291 290 288 288 286 287 283 289 297 296 298 297 297 299 299 301 304 304 303 301 303 305 302 299 298 297 296 296 296 295 296 296 296 297 298 299 300 301 302 302 302 301 300 298 297 297 297 296 295 294 293 291 289 288 288 288 288 287 287 287 287 287 287 288 287 287 286 286
290 290 291 287 286 289 290 293 292 294 294 292 293 294 296 297 297 291 288 290 288 289 288 287 282 288 296 295 293 296 295 296 298 299 299 301 303 303 302 302 300 299 299 297 296 295 295 294 294 295 296 297 297 298 299 300 301 301 301 301 300 299 298 296 296 295 294 292 290 288 288 287 286 286 286 286 286 286 286 286 287 287 287 286 286 286
292 291 288 283 281 280 280 281 284 286 288 292 292 294 295 295 295 289 288 289 285 289 288 287 288 294 298 297 297 295 295 296 297 298 297 298 300 302 301 301 300 298 300 299 297 295 294 294 294 294 295 296 297 297 298 299 300 301 301 301 301 299 298 295 294 294 293 291 289 288 287 287 286 285 284 285 285 285 285 286 286 286 286 286 285 284
288 290 291 289 287 286 288 290 294 296 291 288 290 291 292 294 296 294 292 289 286 289 288 290 291 293 296 298 297 297 294 297 299 300 298 299 299 299 299 299 300 299 299 298 297 297 295 294 294 294 295 295 296 297 297 298 298 299 300 300 299 299 298 294 292 292 291 291 290 288 287 286 285 286 285 285 285 285 285 285 285 285 285 285 284 283
287 289 290 291 291 293 295 295 296 296 290 292 291 291 293 293 293 290 289 288 293 289 286 293 295 290 293 297 299 298 297 296 298 300 301 301 302 304 302 299 296 296 296 296 295 295 294 295 294 294 294 294 295 296 296 297 298 298 299 298 298 298 297 293 291 291 290 290 289 288 287 286 285 286 286 286 286 286 285 284 284 284 284 284 283 283
288 288 290 291 290 294 296 296 297 295 295 295 294 294 292 293 291 288 289 294 295 289 287 294 296 293 295 297 300 301 302 300 299 300 301 303 302 301 299 297 297 298 298 295 296 296 295 295 294 294 293 294 294 295 295 296 296 297 297 298 298 298 298 295 291 290 290 289 289 288 287 286 286 286 287 286 286 285 284 284 284 284 284 284 284 283
290 288 290 292 290 293 294 295 296 295 293 294 294 295 295 293 292 292 292 294 294 293 295 296 296 296 298 300 301 302 304 304 302 302 303 301 300 301 300 298 298 299 298 297 298 298 297 296 295 294 294 293 293 294 294 295 295 296 296 296 297 296 297 293 291 290 289 288 288 288 288 287 285 285 285 285 285 284 284 283 284 284 283 283 284 284
292 288 293 290 288 289 293 294 294 293 293 290 293 295 295 295 294 294 294 295 294 295 296 296 295 294 300 302 303 304 304 304 302 301 301 302 302 302 301 300 300 299 299 298 298 299 298 296 295 294 293 293 293 294 294 294 295 295 295 296 296 294 295 293 291 290 289 289 289 288 288 286 285 284 283 285 284 284 283 284 283 283 283 283 284 284
291 289 291 290 287 287 290 291 291 291 290 289 289 292 292 292 290 292 291 294 293 291 293 293 291 293 299 303 303 303 303 301 300 301 301 302 302 302 302 302 301 300 299 299 299 299 298 296 294 293 293 293 293 293 294 294 294 294 294 295 294 293 294 292 291 290 290 290 289 288 287 286 285 284 284 284 284 283 284 284 284 283 284 284 283 283
288 289 289 289 286 286 290 291 290 289 288 285 286 290 292 293 294 295 295 296 296 297 292 289 291 298 300 301 300 301 301 300 301 302 302 302 303 303 302 303 302 301 301 300 300 299 298 295 294 294 294 294 294 293 294 295 294 293 294 294 294 293 292 291 291 291 290 290 289 288 287 286 285 285 284 284 284 284 284 284 284 284 283 283 283 283
289 290 289 291 285 286 288 289 289 286 280 281 293 296 295 293 294 291 292 294 296 297 295 298 298 300 301 300 299 300 300 299 301 303 305 304 303 304 304 304 304 302 302 301 301 300 298 296 295 295 295 295 295 294 295 295 294 294 294 294 293 291 291 291 291 290 290 289 288 288 287 286 285 285 285 284 284 284 284 284 284 284 284 284 283 282
289 289 290 290 286 286 288 288 284 278 281 292 297 298 299 298 297 295 295 296 297 298 297 297 297 298 300 301 302 302 303 303 304 303 304 305 305 305 305 305 305 304 303 302 301 300 299 296 295 295 295 294 294 294 294 293 294 293 293 293 291 291 290 290 291 291 290 289 288 287 286 285 285 285 285 284 284 283 283 283 283 283 283 283 283 282
289 289 290 288 288 288 286 285 278 280 288 292 295 297 297 298 298 297 294 297 298 298 298 296 298 299 300 301 302 302 302 301 299 300 301 303 305 306 305 305 306 305 304 304 303 302 300 297 296 295 295 295 293 293 293 293 293 292 292 292 291 290 289 289 289 290 290 289 288 287 287 286 285 285 285 284 283 282 282 283 283 283 283 283 283 283
295 292 290 286 289 282 285 284 284 291 290 291 293 295 295 292 293 292 288 293 298 299 299 298 299 299 300 301 301 301 300 297 297 300 303 302 302 301 303 305 306 307 306 306 305 304 302 301 298 298 296 294 293 292 292 292 292 292 290 290 290 289 288 288 288 289 289 288 288 287 286 286 285 285 284 284 283 282 283 283 283 283 284 283 283 282
295 288 291 286 285 288 284 283 284 283 281 287 295 299 301 301 300 300 294 290 299 300 302 300 299 300 300 300 300 300 300 295 294 297 302 304 304 303 302 303 304 304 304 304 303 303 302 299 297 295 295 292 291 291 292 291 291 290 289 289 289 288 288 288 288 289 289 288 288 287 287 286 286 285 284 284 283 283 284 284 284 284 284 283 282 282
295 294 291 288 286 286 283 281 281 280 284 291 292 296 297 297 299 294 291 287 296 298 299 300 299 300 300 300 299 298 294 292 293 298 303 304 304 304 302 302 302 302 302 302 301 300 297 295 294 293 292 291 289 290 291 290 290 289 288 288 288 288 287 287 288 288 288 289 289 288 287 287 286 285 285 284 284 284 284 283 283 284 283 283 283 283
289 289 288 285 284 286 284 282 281 286 286 292 295 295 294 297 300 294 283 284 296 298 300 299 298 299 299 300 300 297 294 292 294 299 304 305 304 302 302 302 302 301 299 299 297 297 295 291 290 289 289 289 290 290 289 289 289 288 288 288 288 287 287 288 288 289 289 289 288 288 287 287 286 286 285 285 285 285 284 284 284 283 283 283 283 283
285 286 287 283 285 285 285 284 286 287 292 291 293 293 291 296 296 286 282 291 295 296 299 300 299 299 300 300 300 295 298 300 302 304 300 296 298 299 299 301 302 301 299 297 294 290 291 290 290 290 289 290 289 288 289 288 288 287 287 287 287 286 287 288 289 289 289 288 288 287 286 287 286 286 286 286 285 285 285 285 284 283 283 282 282 282
285 286 286 287 284 284 285 283 283 287 291 294 296 292 296 294 286 285 294 299 295 296 297 300 299 300 301 300 301 300 302 302 301 303 299 296 297 298 297 296 294 292 292 292 289 290 290 289 289 289 288 288 288 288 288 288 287 287 287 287 286 288 289 289 289 289 288 287 287 286 286 286 286 286 285 285 285 285 284 285 284 283 283 282 281 280
285 285 283 284 286 286 285 283 282 279 289 296 293 292 294 290 291 298 296 293 290 291 294 296 299 301 301 300 301 302 302 302 301 300 300 298 295 295 294 293 293 293 291 290 288 289 289 289 288 288 288 287 287 287 288 287 286 286 286 286 287 288 288 288 288 288 287 287 286 285 285 285 285 285 285 284 284 284 283 283 283 282 282 280 279 279
292 286 285 287 290 283 283 280 282 289 292 296 296 291 293 296 297 292 295 295 291 289 291 293 294 296 297 296 297 298 297 297 297 296 294 294 293 292 292 292 292 292 290 290 290 289 288 289 288 287 286 286 286 287 287 286 286 286 285 286 288 287 287 287 287 286 286 285 285 285 284 284 284 285 285 284 284 284 282 281 281 280 280 280 279 279
290 288 290 287 291 288 286 289 291 290 292 296 298 298 297 301 297 293 292 293 293 292 289 291 293 294 294 294 295 295 295 296 295 295 293 295 293 291 290 290 291 290 290 289 289 287 288 288 286 285 284 285 286 287 286 287 286 285 285 287 286 286 286 285 285 285 284 284 284 284 284 284 284 284 284 283 283 282 280 280 279 279 280 279 280 279
293 292 289 288 289 293 293 291 293 290 289 291 295 296 295 293 290 289 292 295 293 293 291 292 293 291 290 290 290 293 293 294 293 293 291 291 291 290 288 288 288 288 288 287 286 286 286 286 284 283 283 284 285 286 286 286 286 284 285 285 285 285 285 284 284 284 284 284 284 283 283 283 283 283 282 282 283 282 281 280 279 280 279 279 279 279
290 291 289 288 289 289 285 295 293 293 294 292 294 296 295 291 291 290 290 292 294 294 291 290 290 290 289 288 290 293 294 292 290 291 290 289 289 288 287 287 287 286 286 285 286 284 284 283 283 283 282 282 284 285 285 285 286 286 285 283 285 284 284 284 283 283 282 282 282 282 282 281 281 281 280 281 282 282 281 281 281 280 278 279 279 279
287 291 289 289 288 288 289 294 293 294 294 294 293 292 293 295 294 292 290 290 290 289 289 289 288 288 288 288 289 290 291 289 288 289 289 288 287 286 286 286 286 285 285 285 284 284 284 284 283 283 283 282 283 283 284 285 284 283 283 283 283 283 283 283 283 282 282 281 281 281 281 281 275 278 280 280 281 281 281 280 281 280 278 279 279 279
288 291 285 289 288 290 293 293 292 291 290 292 292 291 293 294 294 293 292 290 288 288 289 288 287 289 288 290 290 289 288 288 287 288 287 286 285 285 285 285 285 284 283 282 283 283 285 284 283 283 283 282 282 282 282 281 281 281 281 282 282 282 283 282 280 281 280 280 280 280 280 280 279 280 280 280 280 281 280 280 280 280 280 279 281 281
288 285 289 288 286 287 288 291 294 289 289 293 295 295 294 293 292 292 292 289 289 289 290 290 289 288 287 288 288 288 288 288 286 286 286 285 284 284 283 283 283 282 282 283 283 284 284 283 283 283 282 280 280 279 278 277 278 280 280 280 281 282 282 280 280 279 278 278 279 279 279 279 279 279 279 279 279 278 277 274 279 280 281 279 278 280
286 288 289 285 286 286 290 291 292 293 294 295 297 296 295 295 293 292 292 292 291 291 291 290 290 289 287 288 288 288 288 290 287 286 285 284 284 284 283 283 282 281 281 281 282 282 282 282 281 280 279 278 278 277 276 276 277 277 277 279 281 282 280 279 279 278 278 278 278 278 278 278 278 278 278 278 278 278 277 277 277 278 279 279 279 279
Wind_Speed
3 5 5 7 9 9 8 8 1 6 5 6 4 1 3 5 9 5 1 2 1 4 12 14 14 16 18 16 16 15 8 9 12 14 14 12 11 10 11 13 13 13 13 4 6 8 10 11 10 10 10 10 10 10 11 11 11 12 9 11 10 8 7 7 6 6 7 6 7 6 6 5 5 4 4 4 2 2 4 4 4 6 5 6 7 7
2 5 8 10 5 4 3 4 6 6 3 1 1 2 4 3 9 3 1 3 1 3 6 4 8 14 16 15 15 15 13 17 17 17 17 16 13 11 13 15 15 13 4 5 5 8 9 9 12 11 10 12 13 12 12 13 12 12 13 12 11 7 7 7 8 7 6 6 7 6 6 5 5 5 4 4 3 2 3 4 4 4 6 6 6 7
5 7 7 5 8 7 6 5 3 5 4 3 4 2 3 7 5 13 4 1 2 3 11 10 12 13 13 14 15 15 17 17 17 17 18 15 14 12 12 15 15 7 10 7 9 8 9 11 12 11 11 12 13 13 13 13 12 13 14 12 11 7 8 7 8 8 7 4 2 5 6 5 4 3 3 3 3 3 3 3 4 3 5 6 5 5
3 7 4 7 7 8 5 4 6 4 3 4 4 4 7 2 1 4 4 1 3 5 5 6 13 14 16 17 20 20 18 17 15 14 14 13 15 18 19 14 8 11 10 10 11 11 10 11 11 11 12 13 13 12 12 13 14 13 13 13 10 9 8 8 8 7 5 5 6 6 6 5 3 4 4 5 4 4 4 4 3 3 3 4 5 4
5 4 2 4 8 7 7 6 7 6 6 6 7 7 6 5 7 7 4 4 4 2 1 9 11 12 12 11 9 9 10 11 16 12 14 16 16 18 14 10 12 14 9 9 9 10 11 12 14 15 13 12 13 13 12 13 13 12 16 14 11 9 9 8 7 6 8 8 7 7 7 6 7 6 5 5 3 2 3 4 4 2 2 4 5 5
6 3 6 8 4 4 7 5 8 6 6 4 7 11 10 8 9 4 3 7 6 4 3 5 8 4 2 6 8 5 4 9 7 7 11 13 13 12 13 15 11 11 12 12 11 11 12 12 11 11 13 14 13 13 12 12 13 14 15 14 12 8 8 9 9 8 8 8 9 9 8 8 5 6 6 7 8 7 6 6 5 4 3 4 5 5
2 3 2 6 7 5 6 5 4 8 5 2 2 7 12 8 4 5 2 1 4 5 2 4 6 10 4 10 8 4 7 15 8 7 11 12 10 7 9 9 8 8 8 9 10 8 10 11 11 12 13 14 14 13 11 11 12 15 14 14 11 9 8 8 9 9 7 8 8 11 9 8 8 8 6 5 4 5 5 5 7 6 5 4 6 6
5 2 5 4 6 6 5 5 6 11 4 4 3 2 2 5 7 6 4 6 7 4 4 4 4 10 12 8 10 12 15 16 14 14 14 13 11 8 8 9 9 7 7 6 9 10 10 11 13 15 15 14 14 12 12 12 13 15 17 15 15 9 8 8 9 11 9 8 7 9 9 9 9 9 10 9 7 4 4 5 6 6 5 4 4 6
6 6 7 7 4 4 7 4 6 11 6 0 1 1 4 3 3 3 3 2 2 5 7 5 4 4 9 3 2 2 8 12 14 14 14 15 9 4 6 8 6 6 6 7 7 9 10 11 12 12 13 13 13 12 13 13 14 14 15 13 11 10 10 9 11 11 10 9 10 9 9 8 6 7 6 6 6 6 5 6 4 5 5 4 4 4
2 2 6 6 8 8 3 2 3 10 8 2 5 6 6 5 5 1 2 0 2 3 9 8 10 5 16 6 5 1 5 10 12 13 14 14 4 3 6 6 4 3 4 5 7 6 8 9 10 10 10 12 13 12 12 13 14 14 14 12 12 11 9 9 11 10 11 9 9 9 8 10 7 5 7 6 7 6 6 5 5 5 4 4 4 4
1 1 2 2 6 2 6 5 2 4 4 10 6 8 4 4 2 2 2 1 2 7 9 12 16 11 11 7 7 9 8 10 10 9 9 8 6 7 7 5 3 3 4 4 4 5 5 6 8 10 12 12 12 11 13 14 14 14 15 13 14 12 9 10 11 11 11 8 7 7 8 9 8 9 10 8 6 6 6 6 6 5 5 5 4 5
1 2 3 1 3 4 4 7 6 3 4 5 3 3 4 2 2 2 1 1 3 10 1 2 8 11 12 4 5 5 1 6 8 9 9 7 6 4 0 1 1 1 2 2 4 5 6 6 7 9 11 13 14 13 14 15 15 16 16 13 14 12 11 11 10 11 9 8 7 6 8 9 8 10 9 11 11 10 10 9 8 6 5 5 5 5
4 6 1 1 3 4 6 7 4 4 1 2 4 5 4 2 1 3 2 4 6 8 2 2 1 6 17 16 3 4 8 12 10 9 8 7 8 5 3 3 1 0 1 3 4 4 6 7 9 11 12 12 14 14 16 16 15 15 16 16 17 14 13 11 11 12 11 8 8 9 8 8 9 8 10 11 11 11 10 9 9 9 7 6 6 7
4 4 2 5 2 6 8 9 5 2 7 5 9 8 5 5 4 6 1 2 5 5 2 1 3 10 8 11 18 21 19 14 9 10 10 9 11 11 3 3 2 2 3 3 4 5 7 7 8 10 11 13 13 14 15 16 15 15 15 18 17 17 12 10 11 12 11 11 9 8 8 8 8 8 9 9 7 8 7 8 11 11 10 9 10 9
6 6 9 11 6 10 10 11 9 5 12 12 3 9 6 5 3 3 4 6 6 2 1 3 0 4 2 1 1 12 12 9 8 9 7 8 12 11 5 7 8 7 6 5 6 6 7 7 9 9 11 11 12 14 15 15 16 15 16 18 18 18 12 12 11 10 11 10 9 8 7 6 7 8 6 6 9 8 7 8 8 8 8 8 8 8
10 5 3 8 3 11 13 1 5 7 3 4 0 3 1 8 4 8 2 2 2 4 3 4 7 2 6 5 3 3 5 8 5 7 8 12 12 9 9 10 9 8 9 8 7 6 8 8 9 9 10 11 12 14 14 17 16 16 17 17 18 17 13 13 12 11 12 9 8 8 9 8 8 6 6 7 7 7 4 7 8 8 8 7 7 7
4 7 3 1 2 6 3 2 2 2 9 7 6 7 5 5 5 1 2 3 1 1 11 3 9 9 9 14 16 15 11 9 6 7 7 12 14 7 9 12 11 7 6 5 7 7 8 9 9 10 11 11 12 13 15 17 17 18 17 17 19 19 14 14 13 13 11 9 9 9 8 9 9 8 8 7 8 10 5 3 4 5 7 6 7 6
4 1 2 3 8 0 2 2 3 5 1 9 6 7 3 0 5 3 6 2 1 6 6 3 8 13 2 12 5 2 8 12 12 13 12 13 10 6 10 10 10 3 3 5 7 7 8 8 9 9 9 11 12 13 14 16 16 16 17 18 19 19 15 14 13 13 11 10 11 9 9 8 9 8 10 8 8 7 8 6 5 4 6 6 5 6
3 6 3 3 3 2 1 2 2 3 5 2 1 3 8 5 6 5 1 6 4 5 6 3 5 13 11 16 4 6 9 10 11 12 13 15 13 12 13 12 10 7 2 5 7 7 7 8 9 10 10 11 11 12 13 14 16 15 16 17 18 19 16 14 11 11 9 9 9 9 8 9 8 7 6 6 6 6 7 8 8 7 7 6 6 7
3 7 2 1 3 3 2 6 10 7 0 2 1 3 4 3 2 7 7 1 1 7 1 6 1 14 8 8 5 10 12 9 10 9 11 13 10 10 10 8 8 5 6 6 5 5 5 6 8 9 10 11 12 12 12 13 14 17 17 17 17 17 13 12 12 10 11 10 8 8 7 7 8 8 7 6 7 7 7 8 8 8 8 8 7 7
4 1 6 4 3 2 6 9 10 13 11 5 7 8 4 3 4 3 1 2 3 2 3 5 11 13 7 8 7 9 12 13 13 12 5 4 8 7 6 6 5 6 5 3 3 4 5 6 7 8 9 9 10 10 11 13 16 16 16 15 18 18 14 14 13 12 11 10 11 11 11 9 9 9 6 8 8 9 9 7 8 8 8 8 8 8
3 5 8 6 4 9 4 1 4 10 13 13 16 15 17 12 8 6 6 3 1 4 5 3 12 17 2 1 7 8 10 10 12 10 7 8 8 3 4 5 4 5 1 2 3 3 5 6 7 7 7 7 9 11 14 14 14 16 17 14 12 15 13 14 14 13 12 11 10 12 10 10 9 8 8 10 8 8 8 8 8 8 8 9 8 8
7 3 3 5 9 8 2 2 1 3 4 2 2 3 5 7 7 6 8 6 0 3 4 2 4 22 1 5 5 5 7 11 8 6 7 7 7 5 6 6 5 4 2 2 2 3 4 5 7 8 10 11 12 12 14 14 15 15 17 16 14 12 12 13 13 12 12 12 12 12 11 9 9 8 10 10 8 8 8 8 8 7 9 8 8 7
5 3 3 7 4 3 1 1 2 2 1 3 3 0 6 11 13 12 6 4 7 4 5 5 4 18 4 2 2 1 2 3 1 7 8 6 5 5 6 6 5 4 5 3 3 2 3 5 6 7 10 11 11 12 14 15 14 15 16 16 15 15 14 13 12 12 11 10 11 8 8 7 7 10 11 10 8 10 9 8 8 8 8 8 8 9
6 4 7 4 2 2 1 1 3 2 1 5 6 8 13 12 10 3 3 0 6 11 13 9 13 19 2 1 1 3 1 3 5 6 7 7 6 5 7 6 3 3 3 4 4 4 4 6 8 9 9 11 12 12 13 14 15 15 17 17 17 16 14 12 10 11 11 10 10 8 9 9 9 9 10 11 9 10 9 9 9 9 9 9 9 9
7 8 8 7 9 10 9 10 12 8 10 6 4 7 10 11 12 4 7 5 9 10 17 10 12 22 4 2 6 4 2 3 7 6 3 5 8 7 7 6 7 6 6 5 5 6 8 8 7 8 9 9 10 11 12 14 15 16 17 18 16 14 13 12 9 11 11 10 11 11 11 11 11 12 10 10 10 10 10 10 10 10 9 10 10 10
2 4 11 13 13 13 13 5 6 10 7 8 12 13 14 15 15 10 3 7 12 17 11 15 20 22 21 11 8 8 3 7 9 7 7 8 12 11 6 6 6 5 5 4 5 5 4 7 11 11 10 10 11 12 11 13 13 14 16 16 16 14 12 11 11 11 11 11 12 12 12 11 11 10 11 10 9 9 9 10 10 11 11 10 9 10
2 2 8 12 16 16 16 16 8 12 10 13 13 14 16 15 17 16 15 18 19 12 16 17 18 18 25 26 15 8 6 8 8 7 7 8 11 9 9 10 8 7 5 3 5 7 10 11 10 11 12 12 12 12 12 12 13 14 15 15 15 15 12 9 11 11 12 12 13 12 12 10 10 10 11 11 11 11 10 10 10 10 8 9 10 10
4 6 6 7 13 17 19 18 14 12 14 13 16 16 17 20 18 18 21 24 20 16 19 17 16 22 22 25 21 17 14 11 13 11 11 11 5 4 7 6 8 10 7 6 9 10 11 12 12 12 12 12 12 14 15 13 14 13 13 13 13 15 16 14 13 12 12 11 13 13 11 9 10 10 10 10 11 10 9 10 10 10 10 10 10 8
3 7 9 13 16 18 18 20 20 18 15 18 16 16 16 19 22 24 25 27 25 20 16 18 23 26 23 25 22 12 13 13 8 8 8 6 10 12 9 9 10 10 10 12 13 13 13 12 10 11 11 12 14 15 14 14 14 15 15 15 14 13 13 12 13 13 12 12 12 10 12 13 8 9 8 10 11 10 10 10 10 10 10 11 11 10
7 7 13 8 10 13 20 21 21 20 16 15 15 8 10 16 21 26 23 18 20 20 22 22 26 26 20 22 16 15 13 9 4 11 13 12 11 11 11 11 12 11 12 11 12 11 11 10 9 10 12 14 15 16 15 14 14 13 14 14 13 13 13 12 14 13 12 12 11 10 12 11 10 8 10 11 10 9 11 11 10 9 10 10 11 11
9 7 5 5 9 11 15 16 20 17 12 10 11 10 13 18 21 17 12 14 18 21 23 21 19 19 23 13 10 16 9 7 11 11 11 10 13 13 14 14 12 13 13 13 13 15 11 11 12 13 15 15 15 15 14 14 13 13 15 15 14 13 12 13 14 14 13 12 11 11 13 11 11 11 11 11 10 11 9 10 9 9 10 10 9 9
4 4 7 6 12 11 17 16 16 14 9 10 14 22 29 20 15 8 14 20 23 19 19 14 17 19 22 21 15 18 6 7 12 13 12 16 19 15 16 17 16 13 15 13 16 18 14 13 15 15 14 12 13 15 17 14 12 15 15 15 13 12 12 14 13 12 12 12 12 12 12 12 12 13 12 11 10 9 7 8 8 8 8 9 8 9
7 10 9 6 8 8 15 15 8 7 15 16 15 24 24 24 20 21 21 23 23 17 14 16 15 15 19 25 21 19 12 11 13 17 17 13 13 14 16 11 12 13 14 14 15 16 13 10 9 10 13 14 14 14 12 13 13 12 12 12 11 13 13 14 14 13 13 12 12 12 11 10 10 9 11 9 10 5 7 7 8 8 7 6 6 8
10 10 10 6 7 9 10 10 10 17 15 12 16 14 19 19 21 25 27 25 21 17 18 21 22 26 27 17 13 18 18 15 18 19 20 19 18 16 17 17 17 19 18 18 17 13 11 13 12 10 9 11 13 11 11 11 11 10 11 12 13 13 13 14 13 13 14 12 12 11 10 10 10 10 9 8 10 11 11 12 9 9 8 8 8 8
11 12 7 6 6 3 3 8 12 11 5 4 3 12 12 14 15 15 18 18 22 25 21 21 25 28 26 23 20 19 20 15 10 15 21 18 12 11 16 18 22 22 22 16 15 17 14 12 15 15 16 10 8 10 12 13 12 12 12 12 13 12 12 13 12 12 11 12 12 12 11 11 10 11 8 8 9 11 12 11 10 10 8 7 7 5
12 9 7 9 7 11 8 12 17 7 11 6 8 12 12 11 13 15 16 19 21 20 21 22 24 25 24 20 22 16 11 7 13 23 28 15 14 18 18 20 25 21 18 17 16 16 16 15 14 13 6 7 11 11 13 11 12 12 12 12 11 12 12 12 13 13 13 12 12 12 12 12 13 12 10 11 12 12 12 12 10 8 7 8 8 8
11 12 9 12 8 11 11 12 10 11 16 14 22 19 5 9 11 10 12 14 12 19 20 21 22 25 24 19 18 17 3 5 19 21 25 10 19 22 23 22 21 17 14 15 11 11 9 9 8 4 8 10 11 11 10 12 12 12 11 12 12 12 13 13 14 13 13 13 13 13 13 12 12 12 12 13 13 13 10 6 6 8 8 9 9 10
16 17 13 15 7 9 10 12 13 12 12 8 15 13 6 7 8 5 2 15 13 22 19 17 21 18 15 17 20 8 5 11 17 20 23 12 15 14 17 21 21 20 17 12 13 14 12 8 7 8 9 10 11 12 12 13 13 12 12 12 13 13 13 15 14 14 14 13 12 13 11 11 12 12 13 14 13 12 12 12 12 9 8 9 6 7
15 10 7 12 10 13 11 11 9 5 8 6 11 8 5 8 11 8 10 11 19 20 14 17 18 14 19 19 17 11 14 18 17 17 22 15 9 13 15 16 16 15 13 12 8 7 7 8 9 8 11 13 14 13 13 13 12 12 12 12 12 13 14 15 14 12 12 11 10 9 9 10 12 12 13 12 11 10 11 8 8 8 8 8 7 7
10 9 9 20 15 13 15 9 8 8 5 3 8 4 3 5 13 10 15 12 3 5 12 15 15 19 19 18 14 12 17 19 19 22 9 4 2 6 9 10 11 9 11 10 6 6 7 8 10 11 13 10 11 12 12 12 11 13 11 12 12 15 13 12 11 11 11 10 10 9 12 9 11 13 11 11 11 9 9 7 8 7 8 7 6 6
2 3 3 9 13 12 12 14 14 9 4 6 4 9 9 7 7 12 11 5 5 8 7 9 13 14 15 17 14 14 16 19 22 22 11 4 5 5 7 7 4 1 2 3 7 9 6 7 7 7 7 8 10 11 11 11 13 10 11 12 11 13 10 10 10 10 10 8 10 11 11 11 10 10 10 9 9 8 6 5 8 7 9 6 7 9
9 8 8 9 7 7 6 10 9 13 4 14 7 2 4 6 13 12 2 3 0 2 3 6 8 11 14 15 17 16 17 16 13 13 14 10 6 6 6 7 9 9 8 7 7 8 9 9 9 9 10 9 10 10 10 13 13 10 9 9 11 10 10 10 10 9 8 9 11 10 11 10 11 10 8 9 9 11 8 7 8 8 8 9 8 8
10 10 5 9 9 8 10 12 6 6 3 5 14 12 14 20 4 4 2 3 1 2 1 3 5 6 8 9 9 9 9 10 10 9 8 8 8 5 3 4 4 2 3 4 4 8 6 7 7 8 8 9 8 8 10 13 13 12 10 10 9 7 6 7 8 10 11 10 10 10 10 10 10 9 7 9 8 8 9 8 9 9 6 6 7 6
9 13 9 12 7 11 8 9 4 0 3 6 11 9 2 10 3 2 2 1 2 1 2 1 5 3 4 8 9 9 9 8 9 7 6 9 6 5 5 5 4 3 3 4 5 6 5 8 9 8 8 8 9 8 9 10 13 12 13 8 8 8 8 10 10 11 11 11 11 10 9 9 8 9 9 9 9 8 8 9 8 7 6 7 6 6
2 4 2 3 6 4 8 1 1 3 4 8 9 9 8 4 2 2 5 7 7 5 5 4 4 3 3 3 5 7 8 7 7 8 7 6 5 4 2 2 1 0 2 2 3 5 4 5 6 7 10 8 8 8 7 8 10 15 9 7 8 8 11 11 12 12 12 10 9 11 10 11 8 8 7 8 6 7 7 8 8 7 7 7 6 6
9 7 4 6 2 8 11 10 16 14 11 10 11 11 8 7 7 4 3 6 7 5 4 5 6 4 3 3 7 8 8 5 7 7 5 4 4 3 2 2 2 1 2 3 4 5 5 8 8 8 8 10 7 7 5 6 4 4 6 10 7 9 10 12 11 11 9 10 8 8 8 9 7 7 6 6 6 5 6 6 7 6 7 7 7 6
7 7 11 8 4 12 8 10 10 9 12 8 8 7 10 11 10 7 6 3 3 3 3 4 2 3 4 4 8 7 8 6 7 8 4 4 3 1 2 2 2 2 1 3 4 2 4 6 7 9 9 8 7 6 7 7 6 7 9 9 9 10 11 11 11 10 9 10 7 7 8 7 10 10 6 6 6 7 6 5 6 7 8 9 9 8
7 5 5 6 13 12 11 10 8 7 2 7 10 9 7 4 6 6 7 10 8 7 9 8 7 7 5 7 2 5 7 9 8 6 4 3 3 3 3 3 3 2 3 4 4 5 3 6 8 8 9 7 5 7 6 6 6 7 8 9 9 10 11 10 10 10 9 8 6 7 6 6 7 6 6 6 5 3 3 6 7 6 4 1 3 6
5 7 6 3 9 9 9 13 12 13 4 8 12 10 12 11 9 10 7 5 8 10 9 10 10 7 6 6 6 5 7 8 6 7 8 6 6 5 5 4 4 5 4 3 3 3 4 3 6 8 9 7 6 6 6 6 5 6 7 8 9 10 11 11 9 9 9 6 6 6 6 6 6 5 5 6 6 5 3 5 3 2 3 5 5 3
7 8 6 8 8 7 10 15 12 11 12 8 8 5 9 9 9 10 12 12 12 13 11 9 11 9 9 9 7 8 6 8 8 7 6 6 7 7 7 8 9 7 6 6 7 6 6 6 6 6 8 7 6 6 6 6 6 7 6 7 8 9 10 11 8 6 6 7 6 8 6 6 6 5 5 5 6 6 6 5 3 2 1 3 6 7
Wind_Direction
317 184 198 208 221 202 193 202 52 83 76 86 85 157 267 274 274 262 232 92 158 273 249 249 252 259 268 272 276 278 270 255 260 259 255 252 248 243 243 244 241 234 238 144 186 190 190 188 190 190 189 192 191 192 191 191 192 194 181 183 184 181 161 164 159 164 159 159 144 145 161 156 153 141 128 121 92 103 116 137 131 126 136 131 127 132
238 217 225 231 55 77 148 108 115 91 67 200 155 242 239 197 263 289 313 90 162 227 279 235 261 263 267 272 271 273 268 263 259 259 256 253 245 241 243 249 244 240 202 158 189 190 189 192 192 189 189 188 189 194 191 194 190 192 194 193 187 177 173 172 169 166 172 172 164 164 164 144 144 140 148 138 127 47 85 118 122 119 126 130 136 149
201 208 233 91 97 89 95 137 156 188 152 139 248 206 271 254 268 277 265 81 204 198 266 279 278 273 271 270 266 257 254 254 248 242 253 264 267 255 244 243 249 228 234 199 214 188 193 192 191 192 193 194 196 189 190 192 187 191 195 195 186 173 177 176 176 173 177 164 116 156 143 148 120 46 66 83 92 111 104 89 85 99 123 131 129 146
210 237 264 120 137 117 84 132 145 137 187 204 188 208 239 71 303 279 123 63 151 222 313 329 296 280 274 258 252 249 245 255 258 256 256 253 258 258 253 249 245 243 235 221 204 195 190 190 191 194 196 195 193 191 189 190 195 195 197 197 178 176 180 179 175 176 135 107 92 81 95 78 74 133 104 93 86 92 100 94 75 81 113 114 123 124
193 74 34 174 166 173 137 153 161 182 216 207 217 227 246 220 229 234 321 318 192 241 337 282 273 263 239 253 252 249 254 260 264 261 256 249 242 250 264 273 256 258 244 231 209 188 186 191 197 197 195 190 192 192 190 191 195 202 198 193 183 173 179 175 167 145 132 121 105 97 87 89 92 84 105 114 103 98 108 111 107 100 66 119 134 139
247 104 118 104 116 126 126 168 197 187 242 212 208 221 237 241 256 228 330 329 291 258 95 340 316 273 165 241 259 285 277 262 235 234 249 248 242 241 250 254 255 236 238 242 230 199 191 195 194 193 191 193 195 196 193 192 199 203 198 193 185 173 178 173 162 151 150 154 144 147 148 155 156 144 158 170 166 167 169 160 135 114 123 130 134 143
248 76 214 146 145 149 182 203 189 199 232 248 232 203 232 245 254 265 233 289 259 264 109 306 351 290 200 241 233 236 260 266 251 225 254 258 244 220 236 249 241 238 234 226 234 209 186 192 188 191 193 194 196 197 187 190 201 205 194 195 184 176 173 164 159 161 162 160 166 166 165 159 162 157 178 174 165 151 142 139 148 141 142 146 147 146
141 148 109 114 125 154 164 211 199 187 188 230 82 150 159 195 219 232 220 224 270 356 276 175 231 283 286 230 225 237 252 266 278 276 267 260 255 238 242 246 242 232 225 220 217 216 201 188 189 193 194 192 197 188 185 195 202 203 199 193 191 178 171 162 164 172 176 168 171 172 171 170 173 174 164 162 150 120 124 135 133 139 143 147 148 151
182 162 176 157 175 163 207 206 124 182 188 50 110 200 143 176 176 151 203 236 299 347 286 153 155 263 267 106 21 212 247 253 261 264 263 263 255 240 253 249 240 233 225 220 214 208 197 194 195 194 191 193 189 185 186 195 203 200 197 184 179 182 172 169 173 178 180 176 179 177 170 174 173 163 139 129 127 139 151 137 130 129 130 137 132 144
325 221 199 180 166 208 133 12 186 173 203 133 121 91 90 88 78 157 156 243 243 293 267 151 185 248 276 145 162 264 238 253 251 251 257 262 276 253 253 249 230 221 220 221 228 214 198 193 192 191 186 184 189 186 183 197 202 200 195 178 182 181 172 172 177 181 185 187 187 180 174 172 159 128 126 136 142 145 155 141 140 136 138 140 140 154
359 256 318 194 213 83 105 54 33 357 38 123 160 113 96 79 91 110 64 18 289 252 258 166 192 212 281 155 190 177 201 210 233 248 259 268 273 255 235 238 221 207 196 202 206 205 192 185 182 178 185 185 183 182 189 199 200 200 198 183 188 185 171 172 178 178 185 190 199 185 175 168 154 150 147 144 149 146 154 155 155 156 148 148 152 170
125 60 173 240 53 111 106 91 47 72 135 158 158 146 146 167 149 197 164 147 243 267 103 343 208 214 240 225 225 210 330 244 233 242 251 266 265 267 355 263 229 209 189 181 190 189 179 169 181 182 189 187 186 180 191 200 200 198 197 184 186 181 177 175 179 181 183 187 196 187 176 163 167 157 161 162 162 170 170 167 160 158 151 152 158 181
225 204 128 70 266 152 153 105 77 92 229 228 150 160 186 217 63 226 177 217 196 245 93 25 113 288 238 246 319 274 256 242 232 239 250 263 276 258 219 248 267 328 214 207 196 182 185 189 184 189 190 185 189 188 194 198 200 200 197 188 192 189 183 180 179 185 185 184 187 190 180 171 174 177 175 170 165 171 172 169 158 160 166 155 170 188
230 81 185 160 109 242 187 170 146 166 200 192 187 176 187 227 219 260 208 321 312 278 105 191 137 254 301 279 234 243 234 231 228 233 244 255 262 265 231 239 227 217 241 228 198 198 199 194 189 188 188 189 190 188 193 197 198 199 199 194 194 197 180 170 182 185 185 188 187 182 178 170 170 183 186 184 167 167 170 171 168 169 167 172 185 178
232 232 208 146 222 158 209 217 173 158 166 202 195 184 210 188 182 218 195 234 251 293 114 221 171 237 162 154 256 241 250 245 236 252 248 250 258 266 278 269 264 258 239 216 219 212 203 197 190 187 189 190 190 188 193 197 199 198 199 197 195 196 177 175 182 185 186 185 182 177 180 167 172 182 184 186 185 184 170 175 176 171 163 172 176 174
226 280 68 173 5 147 192 198 91 102 112 179 179 20 287 227 87 253 317 288 344 329 269 159 230 269 230 12 272 236 293 261 237 257 264 262 257 259 272 256 236 221 230 228 222 217 211 199 191 190 191 192 190 189 191 199 197 199 199 197 198 198 183 178 182 190 191 183 178 177 176 178 177 178 177 182 171 194 171 176 181 171 167 171 163 157
64 235 70 354 63 193 168 52 177 190 210 167 147 212 201 8 206 192 95 82 127 258 260 152 265 251 283 252 220 233 224 238 240 244 245 250 253 250 259 271 265 224 212 210 218 220 208 197 198 196 193 191 190 189 193 199 199 198 196 196 197 199 189 179 184 190 189 174 174 182 178 178 177 179 185 184 181 187 179 163 181 169 166 159 157 145
187 176 18 133 202 332 26 304 81 23 34 104 211 204 71 112 1 198 243 143 210 251 276 134 259 282 272 291 82 170 234 244 234 235 234 241 248 236 246 250 264 270 181 208 220 221 212 202 199 197 199 197 194 192 192 199 201 201 199 196 195 198 190 182 182 186 184 175 179 176 180 178 179 179 189 184 174 171 170 173 177 157 157 166 151 148
172 248 139 338 13 73 358 191 120 55 355 290 334 143 179 201 209 184 218 248 216 233 274 236 267 265 219 254 155 155 190 228 236 232 233 246 245 237 246 243 251 261 229 220 221 213 209 203 200 198 196 197 197 195 196 196 201 202 201 200 199 199 196 178 178 182 178 174 187 187 175 174 177 176 173 170 162 159 170 174 177 173 169 148 148 155
191 223 186 307 164 72 188 181 204 167 279 28 78 199 4 324 250 159 207 297 219 265 111 273 151 277 204 222 177 212 186 206 211 213 225 230 229 231 238 245 244 236 226 228 211 209 209 208 204 198 194 193 192 191 194 199 203 203 201 200 200 201 192 174 179 174 180 181 178 177 173 178 177 172 162 151 159 173 182 179 175 168 161 162 158 164
200 75 251 105 310 186 183 198 210 160 178 182 203 199 172 212 345 331 2 206 229 236 242 298 295 259 264 151 180 193 190 200 213 217 211 246 247 238 237 233 226 217 200 182 190 189 199 202 198 197 197 194 193 193 196 203 205 203 200 202 200 199 185 179 181 179 184 175 184 177 183 175 175 172 153 155 173 182 185 177 175 172 164 152 167 162
201 159 223 128 186 217 224 107 249 199 187 183 182 195 188 160 176 179 223 92 237 212 228 193 252 275 141 262 160 183 193 196 212 214 182 221 237 208 233 257 264 276 248 189 186 180 194 197 195 194 190 188 188 194 200 202 203 203 206 204 192 200 190 184 186 186 182 179 180 180 177 178 178 169 166 168 170 179 175 173 174 166 155 168 162 162
185 139 190 183 206 205 109 44 325 322 359 33 303 259 178 189 179 186 220 192 113 242 23 280 358 269 224 142 178 175 197 201 183 205 203 213 215 212 213 212 218 227 238 205 164 187 204 194 192 193 189 191 194 196 201 203 202 203 205 203 200 192 191 186 188 186 184 181 182 183 180 166 164 160 168 169 171 180 172 172 170 161 165 165 156 154
89 176 193 232 64 14 65 56 69 10 18 282 233 167 182 198 196 204 227 144 182 138 226 217 211 263 104 327 128 45 337 348 68 181 215 225 203 215 260 251 212 192 204 201 168 186 208 193 189 189 189 190 191 193 200 205 204 206 204 204 204 198 193 189 188 182 180 178 180 172 164 149 155 164 171 174 174 176 174 170 167 163 167 160 153 158
165 228 201 200 204 163 205 211 220 95 180 227 216 191 211 212 199 44 71 197 225 195 217 184 232 262 88 77 292 176 137 241 198 223 208 237 262 254 226 224 240 238 223 194 184 190 196 199 202 203 198 197 191 189 194 200 205 204 206 205 206 205 190 185 180 176 177 174 171 156 163 168 169 172 172 174 174 175 168 168 164 166 167 158 160 159
171 162 168 199 210 219 210 203 213 191 199 199 235 221 196 202 192 139 223 201 229 226 215 216 244 256 209 105 195 210 210 272 254 248 239 240 252 231 250 247 198 223 235 196 179 187 205 208 208 202 199 199 195 191 189 197 201 204 207 208 205 196 188 180 176 178 173 172 170 177 178 174 174 180 174 170 172 172 169 170 167 166 167 166 162 158
166 203 190 194 207 225 233 249 43 106 114 186 213 190 197 206 204 199 229 220 220 235 228 217 233 258 269 243 187 208 200 228 244 226 225 230 232 226 201 266 270 216 211 218 217 207 196 211 213 205 200 202 199 194 193 194 194 197 202 202 197 195 193 173 173 175 172 176 181 178 183 176 177 177 179 179 171 167 169 171 170 168 167 166 161 161
77 199 219 216 218 228 239 246 199 150 172 204 206 201 200 188 197 196 206 223 221 233 247 236 230 248 261 263 245 208 198 250 252 253 233 246 246 233 213 191 230 271 243 202 210 219 219 218 208 202 199 199 201 197 197 197 198 197 198 197 195 193 185 168 175 178 178 177 184 184 182 177 174 177 180 178 174 173 172 167 167 166 156 157 163 167
154 218 222 226 239 239 245 248 230 187 207 201 207 198 194 197 195 199 218 227 219 218 235 244 234 239 251 262 256 240 252 228 221 220 227 231 278 287 257 245 217 216 215 213 227 219 219 216 208 197 195 202 200 201 201 196 196 197 200 199 195 191 192 180 179 181 179 178 186 188 175 160 172 176 180 173 173 171 166 167 169 165 163 169 171 169
153 224 219 214 229 236 243 248 248 232 229 238 231 215 197 189 196 204 216 221 221 229 239 251 254 249 245 254 258 253 235 252 228 209 225 237 232 232 226 218 227 225 204 211 220 219 214 213 201 193 193 200 203 203 201 200 196 195 195 196 192 187 187 164 177 183 182 183 186 177 174 178 165 167 163 170 174 172 168 169 170 170 170 174 174 170
177 215 212 220 236 239 242 243 246 245 236 244 242 233 212 207 207 207 215 221 228 239 239 239 244 256 253 248 269 269 265 275 238 224 216 219 225 235 233 223 220 224 223 223 224 228 222 206 195 192 199 206 204 204 202 201 197 193 194 194 191 184 187 172 180 185 186 187 180 171 173 175 172 165 172 178 171 167 169 172 172 170 170 173 174 173
173 231 196 205 237 243 247 246 247 250 245 245 253 231 222 220 222 217 221 214 221 226 232 242 251 256 260 257 232 267 252 200 234 227 223 232 232 228 232 229 219 224 224 222 221 215 207 207 203 200 204 206 205 202 201 199 194 187 195 191 190 182 179 177 184 185 186 181 171 169 172 173 168 172 177 174 174 170 169 169 166 169 171 172 171 173
170 199 221 198 232 233 242 242 247 254 256 242 237 240 235 224 221 203 217 228 229 225 233 230 234 241 253 259 258 254 230 243 251 248 225 226 230 226 229 227 219 220 222 218 218 218 209 207 207 202 203 202 201 200 204 194 182 193 192 186 181 167 176 184 184 182 184 182 177 174 175 174 173 177 176 178 167 171 157 161 160 165 167 174 173 164
179 195 220 206 239 234 244 250 255 247 236 229 224 232 234 240 230 230 231 228 230 226 231 236 250 254 255 254 255 263 241 216 235 243 243 231 233 235 242 240 234 234 233 229 224 219 211 209 212 208 204 203 201 201 193 188 191 190 182 177 166 173 178 182 187 184 184 182 176 173 172 169 172 172 177 173 178 154 156 153 166 167 171 163 160 171
199 200 225 198 229 232 247 254 249 240 241 236 236 234 237 237 235 233 235 239 243 236 238 250 256 255 254 262 267 263 261 257 255 259 257 246 242 247 250 245 235 230 231 229 225 216 204 208 212 213 213 215 203 184 173 184 188 175 169 171 174 180 177 183 182 181 183 179 176 172 171 163 166 174 171 172 177 175 176 173 171 169 170 171 173 174
198 208 210 222 217 248 236 218 241 230 241 319 250 229 236 240 241 251 256 246 242 241 232 235 241 248 251 252 254 259 266 279 299 266 255 251 253 259 250 247 245 239 240 236 215 212 199 198 204 203 212 195 151 176 185 190 180 174 178 175 177 176 177 178 180 180 174 171 173 174 172 162 164 174 162 159 165 173 181 182 175 171 170 166 171 169
219 209 199 234 185 230 212 226 238 286 291 250 262 236 201 201 199 200 230 235 233 235 234 236 240 244 247 251 258 266 269 284 273 271 256 230 227 230 232 238 245 247 245 244 232 223 206 204 204 206 168 153 183 180 186 175 167 167 165 168 174 170 173 175 180 183 179 177 173 171 170 169 173 178 169 168 171 178 182 181 176 169 162 162 168 169
196 206 185 219 211 205 226 239 239 231 237 234 237 244 202 207 223 217 226 254 253 244 233 233 240 246 252 258 257 251 209 285 266 263 264 219 225 226 232 241 249 252 244 237 227 225 214 205 195 162 174 179 182 181 171 164 163 163 163 170 170 170 179 182 187 182 177 180 173 170 171 168 173 173 172 173 180 182 181 170 161 167 163 166 170 183
208 211 205 209 212 201 216 232 232 233 239 233 253 256 217 174 174 107 184 250 239 248 242 240 246 253 257 251 250 208 153 238 249 256 273 250 232 225 226 233 234 237 236 221 207 205 196 174 168 161 156 166 177 181 169 160 157 156 167 171 173 176 181 188 185 181 178 179 171 172 162 166 173 174 175 179 184 181 177 177 180 172 170 182 175 177
209 209 211 230 224 224 229 230 231 218 252 224 247 243 195 151 131 122 229 236 241 245 245 239 239 238 240 239 240 200 204 239 246 259 264 267 213 205 214 229 234 234 230 217 217 209 149 130 128 155 173 182 185 166 159 154 161 169 168 173 173 180 188 188 184 176 171 167 159 151 159 168 174 177 179 181 176 176 179 168 160 164 164 173 169 168
207 217 207 223 224 227 226 251 257 253 237 233 246 149 114 165 142 205 226 247 234 151 216 224 215 218 228 236 226 225 224 228 239 251 271 73 95 242 235 241 241 247 236 201 176 140 151 166 172 179 182 175 157 155 154 155 154 172 177 172 177 192 189 178 168 158 156 154 155 167 173 174 178 177 179 177 175 171 169 159 159 151 160 161 164 162
257 215 235 218 225 220 223 231 238 258 230 208 261 125 148 118 228 225 238 247 163 232 243 212 214 214 221 229 227 226 233 232 235 248 258 243 203 253 225 239 263 25 39 100 140 159 155 160 160 142 144 154 150 154 156 157 166 170 169 178 192 187 170 160 156 153 160 158 164 171 174 175 177 176 173 169 162 154 156 152 157 158 158 159 162 169
170 195 190 205 221 239 232 247 233 241 186 212 129 65 244 220 235 238 334 281 132 317 260 253 232 217 216 229 231 233 238 246 249 259 267 263 233 230 211 198 211 199 185 163 168 186 158 158 168 168 161 154 155 155 158 163 171 174 171 191 183 167 160 155 155 152 151 156 168 169 171 171 171 170 166 164 163 162 153 150 151 154 157 161 163 168
163 226 193 211 190 222 210 219 209 223 218 151 158 221 179 215 236 108 132 265 136 199 207 269 271 286 332 315 301 308 314 303 295 264 272 273 268 284 263 257 256 247 187 213 175 163 169 146 151 146 146 154 155 155 158 165 167 176 182 188 172 143 134 142 146 151 158 164 167 166 169 169 168 165 158 162 155 155 142 150 143 135 156 149 155 162
153 229 211 240 172 213 210 231 215 173 214 217 214 238 257 231 225 149 97 193 292 247 170 237 278 325 282 282 274 268 280 253 263 304 271 269 262 249 247 237 234 232 211 175 178 164 171 161 155 147 144 155 156 160 167 172 170 168 181 168 128 143 147 154 153 157 162 165 165 163 160 158 161 158 159 159 154 144 147 150 151 154 159 154 165 166
166 225 44 280 254 328 288 251 120 260 223 237 246 247 244 265 313 182 230 260 237 209 185 232 270 269 280 243 260 267 238 270 286 269 258 274 275 272 298 309 286 291 141 111 129 171 160 115 111 132 141 150 160 162 167 172 170 172 172 123 143 145 152 151 155 161 163 162 159 161 151 154 147 148 138 144 157 150 156 150 159 158 155 165 173 173
245 214 210 231 165 205 249 206 238 240 238 220 225 233 228 213 216 181 195 219 270 243 229 216 236 237 229 239 238 261 278 259 261 264 263 270 263 262 259 260 263 205 178 176 144 129 139 146 149 151 142 146 160 156 154 155 138 136 120 142 141 149 150 155 157 157 154 156 145 136 145 144 151 146 146 148 152 155 152 156 161 154 155 169 171 175
262 165 236 219 239 216 238 194 234 245 249 232 216 219 236 231 224 206 190 249 237 286 283 276 216 242 186 221 227 240 265 253 242 258 256 253 255 242 225 227 208 168 95 84 104 123 127 156 148 148 149 148 156 146 148 149 141 131 135 145 145 146 146 151 158 152 146 140 142 147 154 148 149 147 150 160 157 157 158 160 165 163 170 176 177 174
336 325 257 152 230 241 267 286 284 248 293 265 244 235 247 254 257 247 226 234 230 243 246 233 206 218 184 228 213 231 254 250 222 234 229 222 210 204 201 185 177 148 116 138 150 165 179 167 160 160 158 144 130 119 130 118 114 135 144 144 145 148 148 148 146 149 144 147 141 145 148 145 148 157 149 148 151 142 148 162 170 175 181 186 171 174
313 255 296 272 243 245 235 247 236 252 249 243 244 238 238 231 223 238 240 233 232 239 240 246 248 217 225 228 222 223 239 255 218 196 201 193 185 175 159 155 148 136 150 146 147 160 122 137 154 147 133 108 102 105 120 105 112 121 128 147 150 152 150 147 142 135 138 144 145 139 145 143 151 141 138 145 156 137 93 25 34 38 164 183 203 217
214 233 251 257 261 277 333 328 338 312 294 302 310 273 261 243 215 220 229 228 226 220 229 233 252 257 242 237 211 209 234 235 224 199 200 196 191 178 173 165 157 166 158 155 142 138 137 136 131 122 128 110 127 104 106 104 119 117 131 139 153 154 147 148 141 133 138 146 157 158 144 140 144 150 150 151 146 153 147 141 144 177 83 102 160 186